TIMED

Last updated on Sat Sep 05 2026 00:02:52 GMT+0000 (Coordinated Universal Time)

1 26998U 01055B 26246.61765940 .00000597 00000+0 57634-4 0 9992 2 26998 74.0658 77.0815 0002147 246.0809 114.0151 14.95435898342544
UTC large
Height (km)
Speed (km/s)
/
Latitude / Longitude
Inclination (degrees)
Orbital Period (minutes)
Azimuth
Elevation
Range (km)
Doppler Factor

Next 0 passes for location: London (51.5072 / 0.1276)

No passes found over London.
TIMED